Weather History for Fayetteville, AR

Change the Weather History Date:

Tuesday, November 6, 2012

  Actual Average Record
Temperature  
Mean Temperature 46 °F 51 °F  
Max Temperature 59 °F 63 °F 77 °F (1999)
Min Temperature 33 °F 40 °F 17 °F (1959)
Degree Days  
Heating Degree Days 19 14  
Month to date heating degree days 77  
Since 1 July heating degree days 377  
Moisture  
Dew Point 38 °F    
Average Humidity 74    
Maximum Humidity 96    
Minimum Humidity 46    
Precipitation  
Precipitation 0.00 in 0.14 in 1.83 in (1996)
Month to date precipitation 0.86  
Year to date precipitation 41.90  
Sea Level Pressure  
Sea Level Pressure 30.08 in    
Wind  
Wind Speed 5 mph (WNW)    
Max Wind Speed 12 mph    
Max Gust Speed 18 mph    
Visibility 10 miles    
Events      
T = Trace of Precipitation, MM = Missing Value Source: NWS Daily Summary

Daily Weather History Graph

Daily Weather History Graph

Search for Another Location

Airport:

Trip Planner

Search our weather history database for the weather conditions in past years. The results will help you decide how hot, cold, wet, or windy it might be!

Date:

Astronomy

Nov. 06, 2012 Rise Set
Actual Time 6:44 AM CST 5:15 PM CST
Civil Twilight 6:17 AM CST 5:42 PM CST
Nautical Twilight 5:47 AM CST 6:12 PM CST
Astronomical Twilight 5:17 AM CST 6:42 PM CST
Moon 11:53 PM CST (11/6) 12:38 PM CST (11/6)
Length of Visible Light 11h 24m
Length of Day
10h 30m
Waning Gibbous, 53% of the Moon is Illuminated
Nov 6
Waning Gibbous
Nov 6
Last Quarter
Nov 13
New
Nov 20
First Quarter
Nov 28
Full

Hourly Weather History & Observations

Time (CST) Temp. Windchill Dew Point Humidity Pressure Visibility Wind Dir Wind Speed Gust Speed Precip Events Conditions
12:13 AM 44.6 °F 40.7 °F 39.2 °F 81% 30.08 in 10.0 mi NNW 6.9 mph - N/A   Overcast
12:53 AM 45.0 °F 41.8 °F 39.0 °F 80% 30.07 in 10.0 mi North 5.8 mph - N/A   Overcast
1:03 AM 44.6 °F 41.4 °F 39.2 °F 81% 30.08 in 10.0 mi NNW 5.8 mph - N/A   Overcast
1:53 AM 45.0 °F 41.2 °F 39.0 °F 80% 30.07 in 10.0 mi NW 6.9 mph - N/A   Overcast
2:33 AM 44.6 °F 42.2 °F 39.2 °F 81% 30.08 in 10.0 mi NNW 4.6 mph - N/A   Overcast
2:53 AM 44.1 °F 40.8 °F 39.9 °F 85% 30.07 in 10.0 mi North 5.8 mph - N/A   Overcast
3:53 AM 44.1 °F 41.5 °F 39.0 °F 82% 30.07 in 10.0 mi North 4.6 mph - N/A   Overcast
4:17 AM 44.6 °F 41.4 °F 37.4 °F 76% 30.08 in 10.0 mi NW 5.8 mph - N/A   Overcast
4:53 AM 44.1 °F 40.8 °F 37.9 °F 79% 30.09 in 10.0 mi North 5.8 mph - N/A   Overcast
5:53 AM 44.6 °F - 37.4 °F 76% 30.07 in 10.0 mi Calm Calm - N/A   Overcast
6:53 AM 43.0 °F 40.3 °F 37.9 °F 82% 30.10 in 10.0 mi NW 4.6 mph - N/A   Overcast
7:53 AM 44.1 °F 41.5 °F 37.9 °F 79% 30.12 in 10.0 mi NW 4.6 mph - N/A   Overcast
8:29 AM 44.6 °F - 37.4 °F 76% 30.11 in 9.0 mi Calm Calm - N/A   Mostly Cloudy
8:53 AM 46.0 °F 44.8 °F 37.9 °F 73% 30.12 in 9.0 mi Variable 3.5 mph - N/A   Mostly Cloudy
9:36 AM 48.2 °F - 39.2 °F 71% 30.11 in 10.0 mi Variable 3.5 mph - N/A   Mostly Cloudy
9:53 AM 48.9 °F - 39.0 °F 69% 30.10 in 10.0 mi SSW 3.5 mph - N/A   Scattered Clouds
10:53 AM 52.0 °F - 39.0 °F 61% 30.09 in 10.0 mi West 8.1 mph - N/A   Clear
11:53 AM 55.0 °F - 39.0 °F 55% 30.07 in 10.0 mi West 6.9 mph - N/A   Clear
12:53 PM 57.9 °F - 39.9 °F 51% 30.04 in 10.0 mi West 11.5 mph - N/A   Clear
1:53 PM 59.0 °F - 39.0 °F 48% 30.03 in 10.0 mi WNW 11.5 mph 17.3 mph N/A   Clear
2:53 PM 59.0 °F - 37.9 °F 46% 30.02 in 10.0 mi WNW 11.5 mph 18.4 mph N/A   Clear
3:53 PM 59.0 °F - 39.0 °F 48% 30.02 in 10.0 mi WNW 6.9 mph - N/A   Clear
4:53 PM 55.0 °F - 37.9 °F 53% 30.03 in 10.0 mi WNW 8.1 mph - N/A   Clear
5:53 PM 52.0 °F - 39.0 °F 61% 30.06 in 10.0 mi WNW 3.5 mph - N/A   Clear
6:53 PM 43.0 °F 41.3 °F 37.0 °F 80% 30.07 in 10.0 mi South 3.5 mph - N/A   Clear
7:53 PM 41.0 °F - 37.0 °F 86% 30.08 in 10.0 mi Calm Calm - N/A   Clear
8:53 PM 37.9 °F - 36.0 °F 93% 30.10 in 10.0 mi Calm Calm - N/A   Clear
9:53 PM 35.1 °F 30.1 °F 34.0 °F 96% 30.10 in 10.0 mi South 5.8 mph - N/A   Clear
10:53 PM 33.1 °F - 32.0 °F 96% 30.10 in 10.0 mi Calm Calm - N/A   Clear
11:53 PM 33.1 °F 27.7 °F 32.0 °F 96% 30.10 in 10.0 mi South 5.8 mph - N/A   Clear